Regional Weather Roundup
Issued by NWS Huntsville, AL

Home | Current Version | Previous Version | Text Only | Print | Product List | Glossary On
Versions: 1 2 3 4 5 6 7 8 9 10 11 12 13 14 15 16 17 18 19 20 21 22 23 24 25 26 27 28
000
ASUS44 KHUN 221310
RWRHUN

WEATHER ROUNDUP FOR THE TENNESSEE VALLEY
NATIONAL WEATHER SERVICE HUNTSVILLE AL
800 AM CDT SUN APR 22 2018

ALZ001>004-221400-
NORTHWEST ALABAMA

CITY           SKY/WX    TMP DP  RH WIND       PRES   REMARKS
SHOALS AIRPORT CLOUDY    59  55  87 SE8       30.09F
$$

ALZ005>007-016-221400-
NORTH CENTRAL ALABAMA

CITY           SKY/WX    TMP DP  RH WIND       PRES   REMARKS
DECATUR AP     LGT RAIN  58  57  97 E6        30.12F FOG
HUNTSVILLE AP  LGT RAIN  59  59 100 E12       30.11F FOG
MERIDIANVILLE  CLOUDY    60  56  87 SE9G18    30.13R
REDSTONE ARSN  LGT RAIN  59  57  94 SE6       30.12R FOG
VINEMONT AP    RAIN      58  56  92 E5        30.13F
$$

ALZ008>010-221400-
NORTHEAST ALABAMA

CITY           SKY/WX    TMP DP  RH WIND       PRES   REMARKS
ALBERTVILLE    CLOUDY    55  55 100 E10G17    30.13S
FORT PAYNE     LGT RAIN  55  54  94 E7G20     30.16S
SCOTTSBORO AP  DRIZZLE   59  59 100 VRB6G13   30.15F
$$

TNZ076-096-097-221400-
SOUTHEASTERN MIDDLE TENNESSEE

CITY           SKY/WX    TMP DP  RH WIND       PRES   REMARKS
TULLAHOMA      PTSUNNY   61  54  77 SE9G18    30.13F
WINCHESTER     CLOUDY    61  52  72 SE6G20    30.14F
$$

...SURROUNDING SITES...

CITY           SKY/WX    TMP DP  RH WIND       PRES   REMARKS
ATLANTA        CLOUDY    59  55  87 SE12      30.23S
ANNISTON       CLOUDY    62  56  80 E10       30.14S
BIRMINGHAM     CLOUDY    63  58  83 E13G21    30.11F
CHATTANOOGA    PTSUNNY   63  51  65 SE6       30.21S
CORINTH        DRIZZLE   59  57  94 E9        30.03S
DALTON         CLOUDY    61  54  77 SE8       30.22F
GADSDEN        CLOUDY    57  57 100 NE9       30.16R
GOLDEN TRNGL   CLOUDY    64  61  88 SE14      30.03S
HALEYVILLE     LGT RAIN  58  58 100 SE5       30.10F
JACKSON TN     LGT RAIN  56  55  97 E9        30.05F
MEMPHIS        LGT RAIN  58  58 100 E10       29.98F
NASHVILLE      LGT RAIN  58  47  66 E9        30.13F
ROME           LGT RAIN  58  55  90 NE6       30.19S
SAVANNAH       CLOUDY    57  55  94 SE8       30.07R FOG
SELMER         PTSUNNY   57  55  94 SE9G17    30.04F
TUPELO         CLOUDY    62  57  83 E8        30.02R
TUSCALOOSA     CLOUDY    66  61  84 SE9G17    30.07F
$$

...GULF COAST WEATHER...

CITY           SKY/WX    TMP DP  RH WIND       PRES   REMARKS
GULFPORT       LGT RAIN  70  69  97 SE16      29.96F FOG
PASCAGOULA     CLOUDY    70  66  87 SE8       30.01F
MOBILE         CLOUDY    69  65  86 SE10      30.03F
GULF SHORES    CLOUDY    70  68  94 SE9G17    30.03R
PENSACOLA      PTSUNNY   72  68  87 SE14      30.02
DESTIN         CLOUDY    73  67  81 SE15G25   30.06R
PANAMA CITY    FAIR      71  67  85 SE14      30.08F
APPALACHICOLA  CLOUDY    72  68  87 E15G23    30.10S
$$





USA.gov is the U.S. government's official web portal to all federal, state and local government web resources and services.